Time,TemperatureF,DewpointF,PressureIn,WindDirection,WindDirectionDegrees,WindSpeedMPH,WindSpeedGustMPH,Humidity,HourlyPrecipIn,Conditions,Clouds,dailyrainin,SoftwareType,DateUTC
2013-01-21 00:04:00,37.0,14.0,30.07,NNW,330,10.0,12.0,39,0.00,,,0.00,,2013-01-21 05:04:00,
2013-01-21 00:12:00,37.0,14.0,30.07,NNW,330,10.0,12.0,39,0.00,,,0.00,,2013-01-21 05:12:00,
2013-01-21 00:22:00,37.0,14.0,30.04,NNW,330,10.0,12.0,39,0.00,,,0.00,,2013-01-21 05:22:00,
2013-01-21 00:34:00,37.0,14.0,30.04,NNW,330,10.0,13.0,39,0.00,,,0.00,,2013-01-21 05:34:00,
2013-01-21 00:42:00,37.0,14.0,30.04,NNW,330,10.0,13.0,39,0.00,,,0.00,,2013-01-21 05:42:00,
2013-01-21 00:53:00,36.0,13.0,30.07,NNW,345,10.0,14.0,39,0.00,,,0.00,,2013-01-21 05:53:00,
2013-01-21 01:03:00,36.0,13.0,30.07,NW,315,10.0,14.0,39,0.00,,,0.00,,2013-01-21 06:03:00,
2013-01-21 01:13:00,36.0,13.0,30.07,NW,315,10.0,14.0,39,0.00,,,0.00,,2013-01-21 06:13:00,
2013-01-21 01:23:00,36.0,13.0,30.07,NNW,330,12.0,14.0,39,0.00,,,0.00,,2013-01-21 06:23:00,
2013-01-21 01:33:00,36.0,13.0,30.07,NNW,330,13.0,13.0,39,0.00,,,0.00,,2013-01-21 06:33:00,
2013-01-21 01:43:00,36.0,13.0,30.07,NNW,330,13.0,13.0,39,0.00,,,0.00,,2013-01-21 06:43:00,
2013-01-21 01:53:00,35.0,13.0,30.07,NNW,345,12.0,14.0,39,0.00,,,0.00,,2013-01-21 06:53:00,
2013-01-21 02:03:00,35.0,13.0,30.07,NNW,330,12.0,13.0,39,0.00,,,0.00,,2013-01-21 07:03:00,
2013-01-21 02:13:00,35.0,13.0,30.07,NNW,330,12.0,13.0,39,0.00,,,0.00,,2013-01-21 07:13:00,
2013-01-21 02:23:00,34.0,12.0,30.10,NNW,340,10.0,14.0,39,0.00,,,0.00,,2013-01-21 07:23:00,
2013-01-21 02:33:00,33.0,11.0,30.10,NNW,340,10.0,10.0,39,0.00,,,0.00,,2013-01-21 07:33:00,
2013-01-21 02:42:00,33.0,11.0,30.10,NNW,340,10.0,10.0,39,0.00,,,0.00,,2013-01-21 07:42:00,
2013-01-21 02:53:00,33.0,11.0,30.10,NNW,340,10.0,16.0,39,0.00,,,0.00,,2013-01-21 07:53:00,
2013-01-21 03:03:00,33.0,11.0,30.07,NNW,345,10.0,10.0,39,0.00,,,0.00,,2013-01-21 08:03:00,
2013-01-21 03:14:00,33.0,11.0,30.07,NNW,345,10.0,10.0,39,0.00,,,0.00,,2013-01-21 08:14:00,
2013-01-21 03:23:00,32.0,10.0,30.07,North,350,10.0,14.0,39,0.00,,,0.00,,2013-01-21 08:23:00,
2013-01-21 03:33:00,32.0,10.0,30.07,NNW,345,10.0,13.0,39,0.00,,,0.00,,2013-01-21 08:33:00,
2013-01-21 03:42:00,32.0,10.0,30.07,NNW,345,10.0,13.0,39,0.00,,,0.00,,2013-01-21 08:42:00,
2013-01-21 03:53:00,32.0,10.0,30.07,NNW,335,9.0,13.0,39,0.00,,,0.00,,2013-01-21 08:53:00,
2013-01-21 04:03:00,31.0,9.0,30.07,North,350,9.0,9.0,39,0.00,,,0.00,,2013-01-21 09:03:00,
2013-01-21 04:12:00,31.0,9.0,30.07,North,350,9.0,9.0,39,0.00,,,0.00,,2013-01-21 09:12:00,
2013-01-21 04:23:00,31.0,9.0,30.10,North,0,8.0,10.0,39,0.00,,,0.00,,2013-01-21 09:23:00,
2013-01-21 04:33:00,30.0,8.0,30.10,North,0,7.0,7.0,39,0.00,,,0.00,,2013-01-21 09:33:00,
2013-01-21 04:42:00,30.0,8.0,30.10,North,0,7.0,7.0,39,0.00,,,0.00,,2013-01-21 09:42:00,
2013-01-21 04:53:00,29.0,11.0,30.10,NNW,335,0.0,0.0,46,0.00,,,0.00,,2013-01-21 09:53:00,
2013-01-21 05:02:00,29.0,11.0,30.10,North,350,0.0,0.0,46,0.00,,,0.00,,2013-01-21 10:02:00,
2013-01-21 05:12:00,29.0,11.0,30.10,North,350,0.0,0.0,46,0.00,,,0.00,,2013-01-21 10:12:00,
2013-01-21 05:22:00,29.0,7.0,30.10,North,0,1.0,5.0,39,0.00,,,0.00,,2013-01-21 10:22:00,
2013-01-21 05:32:00,29.0,7.0,30.10,North,355,1.0,2.0,39,0.00,,,0.00,,2013-01-21 10:32:00,
2013-01-21 05:43:00,29.0,7.0,30.10,North,355,1.0,2.0,39,0.00,,,0.00,,2013-01-21 10:43:00,
2013-01-21 05:53:00,29.0,7.0,30.10,NNW,345,2.0,3.0,39,0.00,,,0.00,,2013-01-21 10:53:00,
2013-01-21 06:03:00,28.0,6.0,30.10,North,350,2.0,3.0,39,0.00,,,0.00,,2013-01-21 11:03:00,
2013-01-21 06:13:00,28.0,6.0,30.10,North,350,2.0,3.0,39,0.00,,,0.00,,2013-01-21 11:13:00,
2013-01-21 06:23:00,27.0,10.0,30.10,NNW,340,0.0,0.0,49,0.00,,,0.00,,2013-01-21 11:23:00,
2013-01-21 06:33:00,26.0,10.0,30.10,NNW,340,0.0,0.0,51,0.00,,,0.00,,2013-01-21 11:33:00,
2013-01-21 06:43:00,26.0,10.0,30.10,NNW,340,0.0,0.0,51,0.00,,,0.00,,2013-01-21 11:43:00,
2013-01-21 06:53:00,26.0,12.0,30.10,NNW,340,0.0,0.0,56,0.00,,,0.00,,2013-01-21 11:53:00,
2013-01-21 07:02:00,25.0,12.0,30.10,NNW,340,0.0,0.0,58,0.00,,,0.00,,2013-01-21 12:02:00,
2013-01-21 07:12:00,25.0,12.0,30.10,NNW,340,0.0,0.0,58,0.00,,,0.00,,2013-01-21 12:12:00,
2013-01-21 07:22:00,24.0,11.0,30.10,NNW,340,0.0,0.0,58,0.00,,,0.00,,2013-01-21 12:22:00,
2013-01-21 07:33:00,24.0,12.0,30.10,NNW,340,0.0,0.0,59,0.00,,,0.00,,2013-01-21 12:33:00,
2013-01-21 07:42:00,24.0,12.0,30.10,NNW,340,0.0,0.0,59,0.00,,,0.00,,2013-01-21 12:42:00,
2013-01-21 07:53:00,24.0,13.0,30.13,NNW,340,0.0,0.0,61,0.00,,,0.00,,2013-01-21 12:53:00,
2013-01-21 08:03:00,25.0,14.0,30.13,NNW,340,0.0,0.0,62,0.00,,,0.00,,2013-01-21 13:03:00,
2013-01-21 08:13:00,25.0,14.0,30.13,NNW,340,0.0,0.0,62,0.00,,,0.00,,2013-01-21 13:13:00,
2013-01-21 08:23:00,25.0,14.0,30.13,NNW,340,0.0,0.0,63,0.00,,,0.00,,2013-01-21 13:23:00,
2013-01-21 08:33:00,26.0,15.0,30.13,NNW,340,0.0,0.0,63,0.00,,,0.00,,2013-01-21 13:33:00,
2013-01-21 08:43:00,26.0,15.0,30.13,NNW,340,0.0,0.0,63,0.00,,,0.00,,2013-01-21 13:43:00,
2013-01-21 08:54:00,28.0,15.0,30.13,NNE,25,0.0,0.0,58,0.00,,,0.00,,2013-01-21 13:54:00,
2013-01-21 09:03:00,29.0,13.0,30.13,NNE,25,0.0,0.0,51,0.00,,,0.00,,2013-01-21 14:03:00,
2013-01-21 09:12:00,29.0,13.0,30.13,NNE,25,0.0,0.0,51,0.00,,,0.00,,2013-01-21 14:12:00,
2013-01-21 09:23:00,32.0,10.0,30.10,NNE,20,1.0,3.0,39,0.00,,,0.00,,2013-01-21 14:23:00,
2013-01-21 09:32:00,33.0,11.0,30.10,ESE,105,1.0,2.0,39,0.00,,,0.00,,2013-01-21 14:32:00,
2013-01-21 09:43:00,33.0,11.0,30.10,ESE,105,1.0,2.0,39,0.00,,,0.00,,2013-01-21 14:43:00,
2013-01-21 09:53:00,34.0,12.0,30.13,SSE,150,1.0,2.0,39,0.00,,,0.00,,2013-01-21 14:53:00,
2013-01-21 10:03:00,35.0,13.0,30.13,SE,135,0.0,3.0,39,0.00,,,0.00,,2013-01-21 15:03:00,
2013-01-21 10:13:00,35.0,13.0,30.13,SE,135,0.0,3.0,39,0.00,,,0.00,,2013-01-21 15:13:00,
2013-01-21 10:23:00,36.0,13.0,30.10,NNE,30,1.0,5.0,39,0.00,,,0.00,,2013-01-21 15:23:00,
2013-01-21 10:33:00,36.0,13.0,30.10,NE,35,1.0,3.0,39,0.00,,,0.00,,2013-01-21 15:33:00,
2013-01-21 10:43:00,36.0,13.0,30.10,NE,35,1.0,3.0,39,0.00,,,0.00,,2013-01-21 15:43:00,
2013-01-21 10:53:00,37.0,14.0,30.10,NE,40,2.0,3.0,39,0.00,,,0.00,,2013-01-21 15:53:00,
2013-01-21 11:03:00,37.0,14.0,30.10,NE,45,2.0,3.0,39,0.00,,,0.00,,2013-01-21 16:03:00,
2013-01-21 11:12:00,37.0,14.0,30.10,NE,45,2.0,3.0,39,0.00,,,0.00,,2013-01-21 16:12:00,
2013-01-21 11:23:00,38.0,15.0,30.10,East,100,2.0,5.0,39,0.00,,,0.00,,2013-01-21 16:23:00,
2013-01-21 11:33:00,39.0,16.0,30.10,SE,135,2.0,7.0,39,0.00,,,0.00,,2013-01-21 16:33:00,
2013-01-21 11:43:00,39.0,16.0,30.10,SE,135,2.0,7.0,39,0.00,,,0.00,,2013-01-21 16:43:00,
2013-01-21 11:53:00,39.0,16.0,30.07,South,190,3.0,5.0,39,0.00,,,0.00,,2013-01-21 16:53:00,
2013-01-21 12:03:00,39.0,16.0,30.07,SE,125,3.0,8.0,39,0.00,,,0.00,,2013-01-21 17:03:00,
2013-01-21 12:12:00,39.0,16.0,30.07,SE,125,3.0,8.0,39,0.00,,,0.00,,2013-01-21 17:12:00,
2013-01-21 12:23:00,39.0,16.0,30.04,East,100,6.0,8.0,39,0.00,,,0.00,,2013-01-21 17:23:00,
2013-01-21 12:33:00,38.0,15.0,30.04,ENE,75,6.0,7.0,39,0.00,,,0.00,,2013-01-21 17:33:00,
2013-01-21 12:43:00,38.0,15.0,30.04,ENE,75,6.0,7.0,39,0.00,,,0.00,,2013-01-21 17:43:00,
2013-01-21 12:53:00,38.0,15.0,30.01,ESE,120,5.0,7.0,39,0.00,,,0.00,,2013-01-21 17:53:00,
2013-01-21 13:03:00,39.0,16.0,30.01,South,185,5.0,5.0,39,0.00,,,0.00,,2013-01-21 18:03:00,
2013-01-21 13:12:00,39.0,16.0,30.01,South,185,5.0,5.0,39,0.00,,,0.00,,2013-01-21 18:12:00,
2013-01-21 13:23:00,40.0,17.0,30.01,SE,140,6.0,8.0,39,0.00,,,0.00,,2013-01-21 18:23:00,
2013-01-21 13:33:00,40.0,17.0,30.01,South,170,7.0,8.0,39,0.00,,,0.00,,2013-01-21 18:33:00,
2013-01-21 13:43:00,40.0,17.0,30.01,South,170,7.0,8.0,39,0.00,,,0.00,,2013-01-21 18:43:00,
2013-01-21 13:53:00,41.0,18.0,29.98,SSW,195,8.0,10.0,39,0.00,,,0.00,,2013-01-21 18:53:00,
2013-01-21 14:03:00,41.0,18.0,29.98,SE,125,8.0,8.0,39,0.00,,,0.00,,2013-01-21 19:03:00,
2013-01-21 14:12:00,40.0,17.0,29.98,East,95,5.0,7.0,39,0.00,,,0.00,,2013-01-21 19:12:00,
2013-01-21 14:22:00,40.0,17.0,29.98,East,95,5.0,7.0,39,0.00,,,0.00,,2013-01-21 19:22:00,
2013-01-21 14:33:00,40.0,17.0,29.96,ESE,105,5.0,5.0,39,0.00,,,0.00,,2013-01-21 19:33:00,
2013-01-21 14:43:00,40.0,17.0,29.96,ESE,105,5.0,5.0,39,0.00,,,0.00,,2013-01-21 19:43:00,
2013-01-21 14:53:00,40.0,17.0,29.96,ESE,120,7.0,12.0,39,0.00,,,0.00,,2013-01-21 19:53:00,
2013-01-21 15:03:00,39.0,16.0,29.96,SE,125,6.0,6.0,39,0.00,,,0.00,,2013-01-21 20:03:00,
2013-01-21 15:12:00,39.0,16.0,29.96,SE,125,6.0,6.0,39,0.00,,,0.00,,2013-01-21 20:12:00,
2013-01-21 15:23:00,38.0,15.0,29.93,SE,125,7.0,9.0,39,0.00,,,0.00,,2013-01-21 20:23:00,
2013-01-21 15:33:00,38.0,17.0,29.93,ESE,120,7.0,9.0,42,0.00,,,0.00,,2013-01-21 20:33:00,
2013-01-21 15:43:00,38.0,17.0,29.93,ESE,120,7.0,9.0,42,0.00,,,0.00,,2013-01-21 20:43:00,
2013-01-21 15:53:00,38.0,19.0,29.90,ESE,120,8.0,12.0,45,0.00,,,0.00,,2013-01-21 20:53:00,
2013-01-21 16:04:00,38.0,20.0,29.90,ESE,105,8.0,8.0,47,0.00,,,0.00,,2013-01-21 21:04:00,
2013-01-21 16:12:00,38.0,20.0,29.90,ESE,105,8.0,8.0,47,0.00,,,0.00,,2013-01-21 21:12:00,
2013-01-21 16:23:00,37.0,20.0,29.87,ESE,110,7.0,10.0,50,0.00,,,0.00,,2013-01-21 21:23:00,
2013-01-21 16:33:00,37.0,21.0,29.87,ESE,115,6.0,9.0,51,0.00,,,0.00,,2013-01-21 21:33:00,
2013-01-21 16:43:00,37.0,21.0,29.87,ESE,115,6.0,9.0,51,0.00,,,0.00,,2013-01-21 21:43:00,
2013-01-21 16:54:00,36.0,21.0,29.87,SE,145,3.0,9.0,54,0.00,,,0.00,,2013-01-21 21:54:00,
2013-01-21 17:03:00,37.0,23.0,29.84,SE,145,2.0,5.0,56,0.00,,,0.00,,2013-01-21 22:03:00,
2013-01-21 17:13:00,37.0,23.0,29.84,SE,145,2.0,5.0,56,0.00,,,0.00,,2013-01-21 22:13:00,
2013-01-21 17:23:00,36.0,23.0,29.84,ENE,75,3.0,5.0,58,0.00,,,0.00,,2013-01-21 22:23:00,
2013-01-21 17:33:00,36.0,23.0,29.84,SE,125,2.0,0.0,59,0.00,,,0.00,,2013-01-21 22:33:00,
2013-01-21 17:43:00,36.0,23.0,29.84,SE,125,2.0,0.0,59,0.00,,,0.00,,2013-01-21 22:43:00,
2013-01-21 17:53:00,34.0,22.0,29.84,SE,125,0.0,0.0,62,0.00,,,0.00,,2013-01-21 22:53:00,
2013-01-21 18:03:00,33.0,22.0,29.84,SE,125,0.0,0.0,63,0.00,,,0.00,,2013-01-21 23:03:00,
2013-01-21 18:13:00,33.0,22.0,29.84,SE,125,0.0,0.0,63,0.00,,,0.00,,2013-01-21 23:13:00,
2013-01-21 18:23:00,33.0,23.0,29.84,SE,125,0.0,0.0,65,0.00,,,0.00,,2013-01-21 23:23:00,
2013-01-21 18:33:00,32.0,22.0,29.81,SE,125,0.0,0.0,66,0.00,,,0.00,,2013-01-21 23:33:00,
2013-01-21 18:42:00,32.0,22.0,29.81,SE,125,0.0,0.0,66,0.00,,,0.00,,2013-01-21 23:42:00,
2013-01-21 18:53:00,33.0,23.0,29.81,ESE,120,0.0,0.0,67,0.00,,,0.00,,2013-01-21 23:53:00,
2013-01-21 19:03:00,33.0,24.0,29.81,ESE,120,0.0,0.0,68,0.00,,,0.00,,2013-01-22 00:03:00,
2013-01-21 19:12:00,33.0,24.0,29.81,ESE,120,0.0,0.0,68,0.00,,,0.00,,2013-01-22 00:12:00,
2013-01-21 19:22:00,34.0,24.0,29.78,NE,45,0.0,0.0,66,0.00,,,0.00,,2013-01-22 00:22:00,
2013-01-21 19:33:00,35.0,24.0,29.78,NE,45,0.0,0.0,65,0.00,,,0.00,,2013-01-22 00:33:00,
2013-01-21 19:43:00,35.0,24.0,29.78,NE,45,0.0,0.0,65,0.00,,,0.00,,2013-01-22 00:43:00,
2013-01-21 19:53:00,36.0,25.0,29.78,NE,45,0.0,0.0,64,0.00,,,0.00,,2013-01-22 00:53:00,
2013-01-21 20:02:00,36.0,25.0,29.78,NE,45,0.0,0.0,64,0.00,,,0.00,,2013-01-22 01:02:00,
2013-01-21 20:12:00,36.0,25.0,29.78,NE,45,0.0,0.0,64,0.00,,,0.00,,2013-01-22 01:12:00,
2013-01-21 20:23:00,37.0,25.0,29.78,NNW,340,3.0,7.0,62,0.00,,,0.00,,2013-01-22 01:23:00,
2013-01-21 20:33:00,36.0,26.0,29.78,NNW,330,5.0,17.0,66,0.00,,,0.00,,2013-01-22 01:33:00,
2013-01-21 20:43:00,36.0,26.0,29.78,NNW,330,5.0,17.0,66,0.00,,,0.00,,2013-01-22 01:43:00,
2013-01-21 20:53:00,33.0,25.0,29.84,NNW,330,17.0,21.0,73,0.00,,,0.00,,2013-01-22 01:53:00,
2013-01-21 21:02:00,32.0,26.0,29.84,NNW,340,17.0,22.0,77,0.00,,,0.00,,2013-01-22 02:02:00,
2013-01-21 21:12:00,32.0,26.0,29.84,NNW,340,17.0,22.0,77,0.00,,,0.00,,2013-01-22 02:12:00,
2013-01-21 21:22:00,30.0,25.0,29.87,NNW,340,17.0,22.0,80,0.00,,,0.00,,2013-01-22 02:22:00,
2013-01-21 21:32:00,30.0,26.0,29.87,NNW,340,16.0,20.0,84,0.00,,,0.00,,2013-01-22 02:32:00,
2013-01-21 21:43:00,30.0,26.0,29.87,NNW,340,16.0,20.0,84,0.00,,,0.00,,2013-01-22 02:43:00,
2013-01-21 21:53:00,30.0,27.0,29.87,NNW,340,9.0,14.0,87,0.00,,,0.00,,2013-01-22 02:53:00,
2013-01-21 22:03:00,31.0,28.0,29.87,NNW,345,9.0,14.0,88,0.00,,,0.00,,2013-01-22 03:03:00,
2013-01-21 22:12:00,31.0,28.0,29.87,NNW,345,9.0,14.0,88,0.00,,,0.00,,2013-01-22 03:12:00,
2013-01-21 22:22:00,31.0,26.0,29.87,NNW,340,14.0,16.0,82,0.00,,,0.00,,2013-01-22 03:22:00,
2013-01-21 22:32:00,30.0,24.0,29.87,North,5,15.0,18.0,78,0.00,,,0.00,,2013-01-22 03:32:00,
2013-01-21 22:42:00,30.0,24.0,29.87,North,5,15.0,18.0,78,0.00,,,0.00,,2013-01-22 03:42:00,
2013-01-21 22:53:00,30.0,23.0,29.87,North,350,12.0,17.0,74,0.00,,,0.00,,2013-01-22 03:53:00,
2013-01-21 23:03:00,30.0,22.0,29.87,North,355,12.0,13.0,71,0.00,,,0.00,,2013-01-22 04:03:00,
2013-01-21 23:12:00,30.0,22.0,29.87,North,355,12.0,13.0,71,0.00,,,0.00,,2013-01-22 04:12:00,
2013-01-21 23:22:00,30.0,20.0,29.87,NNW,330,12.0,16.0,66,0.00,,,0.00,,2013-01-22 04:22:00,
2013-01-21 23:33:00,30.0,20.0,29.87,NNW,335,13.0,14.0,65,0.00,,,0.00,,2013-01-22 04:33:00,
2013-01-21 23:42:00,30.0,20.0,29.87,NNW,335,13.0,14.0,65,0.00,,,0.00,,2013-01-22 04:42:00,
2013-01-21 23:53:00,29.0,18.0,29.87,NNW,335,13.0,16.0,62,0.00,,,0.00,,2013-01-22 04:53:00,